| time (UTC) | temp F | wind direction | speed MPH | gust MPH | rain 1hr in | rain 24hr in | rain mn in | humidity % | barometer mb |
| 20260508110516 | 63 | 158 | 1.0 | 3.0 | 0.00 | 0.00 | 0.00 | 85 | 1014.5 |
| 20260508105536 | 63 | 0.0 | 1.0 | 0.00 | 0.00 | 0.00 | 85 | 1014.7 | |
| 20260508104517 | 63 | 0.0 | 2.0 | 0.00 | 0.00 | 0.00 | 85 | 1014.7 | |
| 20260508103557 | 63 | 0.0 | 1.0 | 0.00 | 0.00 | 0.00 | 85 | 1014.5 | |
| 20260508102517 | 63 | 180 | 1.0 | 2.0 | 0.00 | 0.00 | 0.00 | 84 | 1014.5 |
| 20260508101516 | 63 | 158 | 1.0 | 3.0 | 0.00 | 0.00 | 0.00 | 84 | 1014.4 |
| 20260508100516 | 63 | 0.0 | 2.0 | 0.00 | 0.00 | 0.00 | 84 | 1014.5 | |
| 20260508095516 | 63 | 0.0 | 2.0 | 0.00 | 0.00 | 0.00 | 84 | 1014.3 | |
| 20260508094517 | 63 | 0.0 | 2.0 | 0.00 | 0.00 | 0.00 | 84 | 1014.5 | |
| 20260508093516 | 63 | 180 | 1.0 | 3.0 | 0.00 | 0.00 | 0.00 | 84 | 1014.4 |
| 20260508092536 | 63 | 0.0 | 1.0 | 0.00 | 0.00 | 0.00 | 84 | 1014.5 | |
| 20260508091516 | 63 | 0.0 | 1.0 | 0.00 | 0.00 | 0.00 | 84 | 1014.3 | |
| 20260508090516 | 63 | 158 | 1.0 | 3.0 | 0.00 | 0.00 | 0.00 | 83 | 1014.1 |
| 20260508085536 | 63 | 0.0 | 0.0 | 0.00 | 0.00 | 0.00 | 84 | 1014.2 | |
| 20260508084516 | 63 | 0.0 | 1.0 | 0.00 | 0.00 | 0.00 | 83 | 1014.5 | |
| 20260508083516 | 64 | 0.0 | 0.0 | 0.00 | 0.00 | 0.00 | 83 | 1014.2 | |
| 20260508082516 | 64 | 0.0 | 0.0 | 0.00 | 0.00 | 0.00 | 83 | 1014.2 | |
| 20260508081536 | 63 | 0.0 | 0.0 | 0.00 | 0.00 | 0.00 | 83 | 1014.3 | |
| 20260508080516 | 63 | 0.0 | 1.0 | 0.00 | 0.00 | 0.00 | 83 | 1014.4 | |
| 20260508075516 | 63 | 0.0 | 0.0 | 0.00 | 0.00 | 0.00 | 83 | 1014.4 | |
| 20260508074516 | 63 | 0.0 | 1.0 | 0.00 | 0.00 | 0.00 | 84 | 1014.3 | |
| 20260508073516 | 63 | 0.0 | 3.0 | 0.00 | 0.00 | 0.00 | 84 | 1014.1 | |
| 20260508072536 | 63 | 0.0 | 0.0 | 0.00 | 0.00 | 0.00 | 84 | 1014.3 | |
| 20260508071516 | 63 | 0.0 | 3.0 | 0.00 | 0.00 | 0.00 | 84 | 1014.6 | |
| 20260508070516 | 63 | 0.0 | 3.0 | 0.00 | 0.00 | 0.00 | 84 | 1014.7 | |
| 20260508065516 | 63 | 0.0 | 2.0 | 0.00 | 0.00 | 0.00 | 84 | 1014.9 | |
| 20260508064516 | 63 | 0.0 | 0.0 | 0.00 | 0.00 | 0.00 | 84 | 1015.4 | |
| 20260508063536 | 63 | 0.0 | 1.0 | 0.00 | 0.00 | 0.00 | 84 | 1015.3 | |
| 20260508062516 | 63 | 0.0 | 1.0 | 0.00 | 0.00 | 0.00 | 84 | 1015.7 | |
| 20260508061536 | 63 | 0.0 | 1.0 | 0.00 | 0.00 | 0.00 | 84 | 1016.0 | |
| 20260508060516 | 63 | 0.0 | 2.0 | 0.00 | 0.00 | 0.00 | 84 | 1015.6 | |
| 20260508055516 | 62 | 0.0 | 1.0 | 0.00 | 0.00 | 0.00 | 84 | 1015.3 | |
| 20260508054516 | 62 | 0.0 | 0.0 | 0.00 | 0.00 | 0.00 | 84 | 1014.9 | |
| 20260508053536 | 62 | 0.0 | 2.0 | 0.00 | 0.00 | 0.00 | 84 | 1014.8 | |
| 20260508052516 | 62 | 0.0 | 2.0 | 0.00 | 0.00 | 0.00 | 83 | 1014.9 | |
| 20260508051516 | 62 | 158 | 1.0 | 4.0 | 0.00 | 0.00 | 0.00 | 83 | 1014.4 |
| 20260508050516 | 63 | 0.0 | 2.0 | 0.00 | 0.00 | 0.00 | 83 | 1014.8 | |
| 20260508045516 | 63 | 0.0 | 1.0 | 0.00 | 0.00 | 0.00 | 83 | 1014.7 | |
| 20260508044516 | 63 | 0.0 | 1.0 | 0.00 | 0.00 | 0.00 | 82 | 1014.7 | |
| 20260508043516 | 63 | 0.0 | 0.0 | 0.00 | 0.00 | 0.00 | 82 | 1015.2 | |
| 20260508042516 | 63 | 0.0 | 2.0 | 0.00 | 0.00 | 0.00 | 81 | 1015.6 | |
| 20260508041516 | 63 | 0.0 | 1.0 | 0.00 | 0.00 | 0.00 | 81 | 1015.8 | |
| 20260508040516 | 63 | 158 | 1.0 | 3.0 | 0.00 | 0.00 | 0.00 | 81 | 1016.1 |
| 20260508035516 | 63 | 180 | 1.0 | 4.0 | 0.00 | 0.00 | 0.00 | 81 | 1016.1 |
| 20260508034516 | 63 | 135 | 1.0 | 4.0 | 0.00 | 0.00 | 0.00 | 81 | 1016.2 |
| 20260508033516 | 63 | 0.0 | 1.0 | 0.00 | 0.00 | 0.00 | 80 | 1015.5 | |
| 20260508032516 | 63 | 0.0 | 1.0 | 0.00 | 0.00 | 0.00 | 80 | 1015.3 | |
| 20260508031516 | 64 | 0.0 | 2.0 | 0.00 | 0.00 | 0.00 | 79 | 1015.3 | |
| 20260508030536 | 64 | 0.0 | 1.0 | 0.00 | 0.00 | 0.00 | 79 | 1015.0 | |
| 20260508025536 | 64 | 0.0 | 1.0 | 0.00 | 0.00 | 0.00 | 79 | 1014.5 | |
| 20260508024516 | 64 | 0.0 | 1.0 | 0.00 | 0.00 | 0.00 | 79 | 1014.1 | |
| 20260508023516 | 64 | 0.0 | 2.0 | 0.00 | 0.00 | 0.00 | 79 | 1014.2 | |
| 20260508022516 | 64 | 0.0 | 2.0 | 0.00 | 0.00 | 0.00 | 79 | 1014.0 | |
| 20260508021517 | 64 | 0.0 | 1.0 | 0.00 | 0.00 | 0.00 | 79 | 1014.5 | |
| 20260508020516 | 64 | 0.0 | 1.0 | 0.00 | 0.00 | 0.00 | 79 | 1014.7 | |
| 20260508015516 | 64 | 0.0 | 3.0 | 0.00 | 0.00 | 0.00 | 79 | 1014.5 | |
| 20260508014556 | 64 | 135 | 1.0 | 3.0 | 0.00 | 0.00 | 0.00 | 78 | 1014.8 |
| 20260508013516 | 65 | 158 | 1.0 | 3.0 | 0.00 | 0.00 | 0.00 | 78 | 1014.1 |
| 20260508012516 | 65 | 0.0 | 3.0 | 0.00 | 0.00 | 0.00 | 77 | 1014.1 | |
| 20260508011516 | 65 | 0.0 | 2.0 | 0.00 | 0.00 | 0.00 | 76 | 1014.3 | |
| 20260508010516 | 65 | 0.0 | 2.0 | 0.00 | 0.00 | 0.00 | 76 | 1014.5 | |
| 20260508005516 | 66 | 0.0 | 2.0 | 0.00 | 0.00 | 0.00 | 75 | 1014.9 | |
| 20260508004516 | 66 | 158 | 1.0 | 3.0 | 0.00 | 0.00 | 0.00 | 74 | 1015.2 |
| 20260508003516 | 66 | 158 | 1.0 | 4.0 | 0.00 | 0.00 | 0.00 | 74 | 1015.4 |
| 20260508002536 | 67 | 0.0 | 2.0 | 0.00 | 0.00 | 0.00 | 73 | 1015.6 | |
| 20260508001516 | 67 | 113 | 1.0 | 4.0 | 0.00 | 0.00 | 0.00 | 72 | 1015.4 |
| 20260508000536 | 68 | 135 | 2.0 | 6.0 | 0.00 | 0.00 | 0.00 | 71 | 1015.3 |
| 20260507235516 | 68 | 135 | 2.0 | 6.0 | 0.00 | 0.00 | 0.00 | 71 | 1015.6 |
| 20260507234515 | 68 | 203 | 2.0 | 8.0 | 0.00 | 0.00 | 0.00 | 70 | 1015.4 |
| 20260507233515 | 68 | 158 | 2.0 | 5.0 | 0.00 | 0.00 | 0.00 | 70 | 1015.5 |
| 20260507232515 | 68 | 90 | 1.0 | 8.0 | 0.00 | 0.00 | 0.00 | 70 | 1015.2 |
| 20260507231515 | 69 | 113 | 1.0 | 6.0 | 0.00 | 0.00 | 0.00 | 69 | 1015.5 |
| 20260507230516 | 70 | 180 | 1.0 | 5.0 | 0.00 | 0.00 | 0.00 | 69 | 1015.9 |
| 20260507225517 | 69 | 135 | 3.0 | 7.0 | 0.00 | 0.00 | 0.00 | 68 | 1016.0 |
| 20260507224518 | 69 | 203 | 2.0 | 6.0 | 0.00 | 0.00 | 0.00 | 69 | 1016.2 |
| 20260507223515 | 70 | 180 | 3.0 | 6.0 | 0.00 | 0.00 | 0.00 | 69 | 1016.2 |
| 20260507222517 | 70 | 113 | 2.0 | 7.0 | 0.00 | 0.00 | 0.00 | 69 | 1016.1 |
| 20260507221536 | 70 | 113 | 2.0 | 7.0 | 0.00 | 0.00 | 0.00 | 70 | 1015.8 |
| 20260507220517 | 70 | 203 | 3.0 | 7.0 | 0.00 | 0.00 | 0.00 | 70 | 1016.0 |
| 20260507215517 | 69 | 158 | 2.0 | 7.0 | 0.00 | 0.00 | 0.00 | 71 | 1015.9 |
| 20260507214518 | 69 | 113 | 2.0 | 7.0 | 0.00 | 0.00 | 0.00 | 71 | 1016.0 |
| 20260507213518 | 68 | 135 | 2.0 | 7.0 | 0.00 | 0.00 | 0.00 | 70 | 1016.2 |
| 20260507212517 | 68 | 203 | 2.0 | 7.0 | 0.00 | 0.00 | 0.00 | 71 | 1016.0 |
| 20260507211517 | 68 | 113 | 2.0 | 6.0 | 0.00 | 0.00 | 0.00 | 72 | 1016.2 |
| 20260507210517 | 68 | 90 | 1.0 | 6.0 | 0.00 | 0.00 | 0.00 | 73 | 1015.7 |
| 20260507205517 | 67 | 135 | 1.0 | 2.0 | 0.00 | 0.00 | 0.00 | 73 | 1016.1 |
| 20260507204537 | 67 | 180 | 2.0 | 7.0 | 0.00 | 0.00 | 0.00 | 73 | 1016.0 |
| 20260507203518 | 67 | 0.0 | 2.0 | 0.00 | 0.00 | 0.00 | 74 | 1016.1 | |
| 20260507202537 | 67 | 293 | 1.0 | 5.0 | 0.00 | 0.00 | 0.00 | 73 | 1016.3 |
| 20260507201518 | 67 | 135 | 2.0 | 7.0 | 0.00 | 0.00 | 0.00 | 73 | 1016.5 |
| 20260507200517 | 67 | 158 | 2.0 | 8.0 | 0.00 | 0.00 | 0.00 | 73 | 1015.8 |
| 20260507195538 | 67 | 90 | 3.0 | 8.0 | 0.00 | 0.00 | 0.00 | 72 | 1016.2 |
| 20260507194517 | 67 | 135 | 2.0 | 9.0 | 0.00 | 0.00 | 0.00 | 73 | 1016.7 |
| 20260507193517 | 68 | 135 | 2.0 | 8.0 | 0.00 | 0.00 | 0.00 | 72 | 1017.1 |
| 20260507192517 | 69 | 180 | 3.0 | 6.0 | 0.00 | 0.00 | 0.00 | 70 | 1016.9 |
| 20260507191537 | 70 | 158 | 3.0 | 8.0 | 0.00 | 0.00 | 0.00 | 70 | 1017.1 |
| 20260507190517 | 70 | 270 | 1.0 | 4.0 | 0.00 | 0.00 | 0.00 | 69 | 1017.2 |
| 20260507185557 | 70 | 135 | 1.0 | 6.0 | 0.00 | 0.00 | 0.00 | 70 | 1017.3 |
| 20260507184517 | 70 | 270 | 1.0 | 5.0 | 0.00 | 0.00 | 0.00 | 71 | 1016.9 |
| 20260507183517 | 69 | 158 | 3.0 | 10.0 | 0.00 | 0.00 | 0.00 | 70 | 1016.8 |
| 20260507182517 | 69 | 248 | 2.0 | 4.0 | 0.00 | 0.00 | 0.00 | 71 | 1017.1 |
| 20260507181517 | 69 | 225 | 1.0 | 5.0 | 0.00 | 0.00 | 0.00 | 72 | 1017.4 |
| 20260507180517 | 67 | 338 | 2.0 | 5.0 | 0.00 | 0.00 | 0.00 | 75 | 1017.2 |
| 20260507175517 | 67 | 315 | 1.0 | 3.0 | 0.00 | 0.00 | 0.00 | 75 | 1016.9 |
| 20260507174517 | 66 | 90 | 3.0 | 9.0 | 0.00 | 0.00 | 0.00 | 75 | 1017.6 |
| 20260507173537 | 65 | 248 | 1.0 | 5.0 | 0.00 | 0.00 | 0.00 | 77 | 1018.1 |
| 20260507172517 | 64 | 158 | 1.0 | 4.0 | 0.00 | 0.00 | 0.00 | 78 | 1018.2 |
| 20260507171517 | 63 | 90 | 2.0 | 4.0 | 0.00 | 0.00 | 0.00 | 78 | 1018.7 |
| 20260507170517 | 63 | 113 | 2.0 | 7.0 | 0.00 | 0.00 | 0.00 | 79 | 1018.6 |
| 20260507165517 | 62 | 68 | 2.0 | 6.0 | 0.00 | 0.00 | 0.00 | 79 | 1018.5 |
| 20260507164517 | 62 | 113 | 2.0 | 4.0 | 0.00 | 0.00 | 0.00 | 79 | 1019.0 |
| 20260507163517 | 62 | 203 | 2.0 | 7.0 | 0.00 | 0.00 | 0.00 | 79 | 1018.6 |
| 20260507162537 | 62 | 135 | 2.0 | 6.0 | 0.00 | 0.00 | 0.00 | 80 | 1018.6 |
| 20260507161517 | 61 | 113 | 2.0 | 6.0 | 0.00 | 0.00 | 0.00 | 81 | 1018.6 |
| 20260507160517 | 61 | 203 | 3.0 | 8.0 | 0.00 | 0.00 | 0.00 | 81 | 1018.8 |
| 20260507155517 | 61 | 135 | 3.0 | 11.0 | 0.00 | 0.00 | 0.00 | 81 | 1018.7 |
| 20260507154517 | 61 | 180 | 2.0 | 10.0 | 0.00 | 0.00 | 0.00 | 82 | 1018.7 |
| 20260507153517 | 61 | 113 | 2.0 | 6.0 | 0.00 | 0.00 | 0.00 | 82 | 1018.5 |
| 20260507152517 | 61 | 113 | 4.0 | 10.0 | 0.00 | 0.00 | 0.00 | 82 | 1018.6 |
| 20260507151517 | 61 | 158 | 4.0 | 11.0 | 0.00 | 0.00 | 0.00 | 83 | 1018.4 |
| 20260507150517 | 61 | 135 | 1.0 | 4.0 | 0.00 | 0.00 | 0.00 | 84 | 1018.4 |
| 20260507145517 | 61 | 158 | 1.0 | 4.0 | 0.00 | 0.00 | 0.00 | 84 | 1018.6 |
| 20260507144516 | 61 | 113 | 1.0 | 4.0 | 0.00 | 0.00 | 0.00 | 84 | 1018.5 |
| 20260507143517 | 61 | 225 | 1.0 | 5.0 | 0.00 | 0.00 | 0.00 | 85 | 1018.5 |
| 20260507142517 | 61 | 113 | 2.0 | 6.0 | 0.00 | 0.00 | 0.00 | 85 | 1018.3 |
| 20260507141517 | 61 | 135 | 2.0 | 8.0 | 0.00 | 0.00 | 0.00 | 84 | 1017.9 |
| 20260507140517 | 61 | 158 | 2.0 | 10.0 | 0.00 | 0.00 | 0.00 | 85 | 1017.7 |
| 20260507135557 | 61 | 113 | 2.0 | 6.0 | 0.00 | 0.00 | 0.00 | 85 | 1017.9 |
| 20260507134517 | 61 | 248 | 1.0 | 5.0 | 0.00 | 0.00 | 0.00 | 85 | 1017.9 |
| 20260507133517 | 61 | 203 | 3.0 | 9.0 | 0.00 | 0.00 | 0.00 | 85 | 1018.2 |
| 20260507132517 | 61 | 113 | 2.0 | 6.0 | 0.00 | 0.00 | 0.00 | 85 | 1017.9 |
| 20260507131517 | 61 | 113 | 2.0 | 8.0 | 0.00 | 0.00 | 0.00 | 85 | 1017.7 |
| 20260507130517 | 61 | 180 | 2.0 | 8.0 | 0.00 | 0.00 | 0.00 | 85 | 1017.6 |
| 20260507125517 | 61 | 180 | 4.0 | 14.0 | 0.00 | 0.00 | 0.00 | 86 | 1017.7 |
| 20260507124517 | 61 | 135 | 4.0 | 8.0 | 0.00 | 0.00 | 0.00 | 86 | 1017.4 |
| 20260507123516 | 61 | 203 | 3.0 | 14.0 | 0.00 | 0.00 | 0.00 | 87 | 1017.5 |
| 20260507122517 | 61 | 135 | 3.0 | 8.0 | 0.00 | 0.01 | 0.00 | 87 | 1017.2 |
| 20260507121516 | 61 | 158 | 1.0 | 4.0 | 0.00 | 0.01 | 0.00 | 87 | 1017.2 |
| 20260507120517 | 61 | 158 | 2.0 | 11.0 | 0.00 | 0.01 | 0.00 | 87 | 1017.0 |
| 20260507115537 | 61 | 203 | 3.0 | 10.0 | 0.00 | 0.01 | 0.00 | 87 | 1016.9 |
| 20260507114517 | 60 | 135 | 3.0 | 10.0 | 0.00 | 0.01 | 0.00 | 88 | 1016.6 |
| 20260507113517 | 60 | 113 | 2.0 | 6.0 | 0.00 | 0.01 | 0.00 | 88 | 1016.8 |
| 20260507112516 | 60 | 158 | 2.0 | 9.0 | 0.00 | 0.01 | 0.00 | 88 | 1016.9 |
| 20260507111536 | 60 | 158 | 2.0 | 8.0 | 0.00 | 0.01 | 0.00 | 89 | 1016.7 |